User: anonymous   Login
Location: Unspecified
(0.0000°N, 0.0000°E)
Time: 02:19:27
(UTC+00:00)
Language:

AEHF 2 (USA 235) - Orbit

View from above orbital plane
View from above orbital plane
View from above satellite
View from above satellite

Ground track
Ground track

The orbit data is extracted from the following two-line orbital elements,

1 38254U 12019A   20053.53887708 -.00000290  00000-0  00000+0 0  9992
2 38254   1.8484  42.1791 0003382 319.2025 276.8795  1.00266621 28548
Epoch (UTC): 22 February 2020 12:55:58
Eccentricity: 0.0003382
inclination: 1.8484°
perigee height: 35773 km
apogee height: 35802 km
right ascension of ascending node: 42.1791°
argument of perigee: 319.2025°
revolutions per day: 1.00266621
mean anomaly at epoch: 276.8795°
orbit number at epoch: 2854

The dashed part of the orbit path shows where the satellite is in the earth's shadow,  

DLR